| time (UTC) | temp F | wind direction | speed MPH | gust MPH | rain 1hr in | rain 24hr in | rain mn in | humidity % | barometer mb |
| 20260901005003 | 81 | 239 | 0.0 | 0.0 | 0.00 | 0.26 | 0.23 | 80 | 1013.7 |
| 20260901004504 | 81 | 239 | 0.0 | 0.0 | 0.00 | 0.26 | 0.23 | 80 | 1013.7 |
| 20260901004006 | 81 | 239 | 0.0 | 1.0 | 0.00 | 0.26 | 0.23 | 80 | 1013.6 |
| 20260901003504 | 81 | 239 | 0.0 | 1.0 | 0.00 | 0.26 | 0.23 | 80 | 1013.7 |
| 20260901003004 | 81 | 238 | 0.0 | 0.0 | 0.01 | 0.26 | 0.23 | 82 | 1013.8 |
| 20260901002504 | 81 | 239 | 0.0 | 0.0 | 0.01 | 0.26 | 0.23 | 82 | 1013.6 |
| 20260901002004 | 81 | 239 | 0.0 | 0.0 | 0.01 | 0.26 | 0.23 | 82 | 1013.7 |
| 20260901001503 | 81 | 239 | 0.0 | 0.0 | 0.01 | 0.26 | 0.23 | 82 | 1013.6 |
| 20260901001006 | 81 | 239 | 0.0 | 0.0 | 0.01 | 0.26 | 0.23 | 83 | 1013.3 |
| 20260901000503 | 81 | 238 | 0.0 | 0.0 | 0.01 | 0.26 | 0.23 | 83 | 1013.3 |
| 20260901000008 | 81 | 239 | 0.0 | 0.0 | 0.01 | 0.26 | 0.23 | 82 | 1013.1 |
| 20260831235505 | 81 | 239 | 0.0 | 1.0 | 0.01 | 0.27 | 0.23 | 82 | 1013.0 |
| 20260831235004 | 81 | 239 | 0.0 | 1.0 | 0.01 | 0.27 | 0.23 | 83 | 1012.9 |
| 20260831234504 | 81 | 239 | 0.0 | 0.0 | 0.01 | 0.27 | 0.23 | 83 | 1012.4 |
| 20260831233503 | 83 | 239 | 0.0 | 0.0 | 0.01 | 0.27 | 0.23 | 79 | 1013.0 |
| 20260831232504 | 83 | 239 | 0.0 | 0.0 | 0.00 | 0.26 | 0.22 | 76 | 1013.8 |
| 20260831232004 | 84 | 239 | 0.0 | 1.0 | 0.00 | 0.26 | 0.22 | 75 | 1013.9 |
| 20260831231505 | 84 | 239 | 0.0 | 2.0 | 0.00 | 0.26 | 0.22 | 74 | 1014.0 |
| 20260831231004 | 84 | 241 | 0.0 | 2.0 | 0.00 | 0.26 | 0.22 | 73 | 1013.5 |
| 20260831230503 | 84 | 241 | 0.0 | 0.0 | 0.00 | 0.26 | 0.22 | 73 | 1013.4 |
| 20260831230005 | 84 | 241 | 0.0 | 0.0 | 0.00 | 0.27 | 0.22 | 73 | 1013.3 |
| 20260831225504 | 85 | 241 | 0.0 | 1.0 | 0.00 | 0.27 | 0.22 | 72 | 1013.2 |
| 20260831225004 | 85 | 241 | 0.0 | 1.0 | 0.00 | 0.27 | 0.22 | 71 | 1013.1 |
| 20260831224504 | 85 | 241 | 0.0 | 0.0 | 0.00 | 0.27 | 0.22 | 72 | 1013.2 |
| 20260831224004 | 85 | 241 | 0.0 | 0.0 | 0.00 | 0.27 | 0.22 | 70 | 1013.3 |
| 20260831223004 | 85 | 241 | 0.0 | 0.0 | 0.00 | 0.27 | 0.22 | 69 | 1013.2 |
| 20260831222504 | 85 | 241 | 0.0 | 0.0 | 0.00 | 0.27 | 0.22 | 69 | 1013.5 |
| 20260831222005 | 85 | 241 | 0.0 | 1.0 | 0.00 | 0.27 | 0.22 | 68 | 1013.3 |
| 20260831221504 | 86 | 241 | 0.0 | 1.0 | 0.00 | 0.27 | 0.22 | 68 | 1013.4 |
| 20260831221005 | 86 | 239 | 0.0 | 1.0 | 0.00 | 0.27 | 0.22 | 69 | 1013.3 |
| 20260831220504 | 86 | 239 | 0.0 | 2.0 | 0.00 | 0.27 | 0.22 | 67 | 1013.3 |
| 20260831220005 | 86 | 239 | 1.0 | 3.0 | 0.00 | 0.27 | 0.22 | 67 | 1013.2 |
| 20260831215504 | 86 | 241 | 1.0 | 3.0 | 0.00 | 0.27 | 0.22 | 67 | 1013.1 |
| 20260831215007 | 86 | 246 | 0.0 | 2.0 | 0.00 | 0.27 | 0.22 | 68 | 1013.0 |
| 20260831214504 | 86 | 244 | 0.0 | 2.0 | 0.00 | 0.27 | 0.22 | 68 | 1013.1 |
| 20260831214004 | 86 | 244 | 0.0 | 4.0 | 0.00 | 0.27 | 0.22 | 67 | 1013.0 |
| 20260831213004 | 86 | 264 | 0.0 | 6.0 | 0.00 | 0.27 | 0.22 | 66 | 1012.8 |
| 20260831212504 | 86 | 248 | 0.0 | 6.0 | 0.00 | 0.27 | 0.22 | 66 | 1012.7 |
| 20260831211005 | 87 | 279 | 0.0 | 0.0 | 0.00 | 0.27 | 0.22 | 67 | 1012.9 |
| 20260831210503 | 87 | 279 | 0.0 | 1.0 | 0.00 | 0.27 | 0.22 | 66 | 1013.0 |
| 20260831210006 | 87 | 279 | 0.0 | 1.0 | 0.00 | 0.27 | 0.22 | 67 | 1013.0 |
| 20260831205004 | 87 | 279 | 0.0 | 3.0 | 0.00 | 0.30 | 0.22 | 66 | 1013.1 |
| 20260831204504 | 86 | 279 | 1.0 | 3.0 | 0.00 | 0.30 | 0.22 | 68 | 1013.3 |
| 20260831204005 | 86 | 283 | 1.0 | 4.0 | 0.00 | 0.30 | 0.22 | 67 | 1013.4 |
| 20260831203504 | 86 | 238 | 0.0 | 4.0 | 0.00 | 0.30 | 0.22 | 64 | 1013.4 |
| 20260831203004 | 86 | 215 | 0.0 | 3.0 | 0.00 | 0.30 | 0.22 | 65 | 1013.4 |
| 20260831202503 | 87 | 278 | 1.0 | 3.0 | 0.00 | 0.30 | 0.22 | 65 | 1013.5 |
| 20260831201503 | 88 | 271 | 1.0 | 7.0 | 0.00 | 0.30 | 0.22 | 62 | 1013.6 |
| 20260831201004 | 88 | 274 | 1.0 | 4.0 | 0.00 | 0.30 | 0.22 | 61 | 1013.6 |
| 20260831195504 | 86 | 283 | 0.0 | 5.0 | 0.00 | 0.37 | 0.22 | 63 | 1013.2 |
| 20260831195005 | 86 | 239 | 0.0 | 3.0 | 0.00 | 0.37 | 0.22 | 65 | 1013.1 |
| 20260831194504 | 85 | 239 | 1.0 | 8.0 | 0.00 | 0.37 | 0.22 | 63 | 1013.1 |
| 20260831194004 | 85 | 281 | 1.0 | 8.0 | 0.00 | 0.37 | 0.22 | 62 | 1013.2 |
| 20260831193004 | 86 | 254 | 1.0 | 4.0 | 0.00 | 0.37 | 0.22 | 61 | 1013.6 |
| 20260831192504 | 87 | 291 | 1.0 | 8.0 | 0.00 | 0.37 | 0.22 | 60 | 1013.5 |
| 20260831191503 | 86 | 271 | 0.0 | 7.0 | 0.00 | 0.37 | 0.22 | 62 | 1013.3 |
| 20260831191004 | 86 | 167 | 0.0 | 7.0 | 0.00 | 0.37 | 0.22 | 62 | 1013.3 |
| 20260831190504 | 86 | 283 | 0.0 | 2.0 | 0.00 | 0.37 | 0.22 | 64 | 1013.4 |
| 20260831190006 | 86 | 300 | 0.0 | 4.0 | 0.00 | 0.37 | 0.22 | 62 | 1013.6 |
| 20260831185507 | 87 | 233 | 0.0 | 4.0 | 0.00 | 0.37 | 0.22 | 59 | 1013.6 |
| 20260831185004 | 87 | 236 | 0.0 | 5.0 | 0.00 | 0.37 | 0.22 | 62 | 1013.6 |
| 20260831184504 | 87 | 173 | 1.0 | 5.0 | 0.00 | 0.37 | 0.22 | 61 | 1013.7 |
| 20260831184006 | 87 | 265 | 1.0 | 5.0 | 0.00 | 0.37 | 0.22 | 63 | 1013.8 |
| 20260831183506 | 86 | 245 | 1.0 | 8.0 | 0.00 | 0.37 | 0.22 | 63 | 1013.8 |
| 20260831183006 | 85 | 288 | 2.0 | 8.0 | 0.00 | 0.37 | 0.22 | 63 | 1013.7 |
| 20260831182007 | 85 | 243 | 1.0 | 5.0 | 0.00 | 0.37 | 0.22 | 63 | 1013.6 |
| 20260831180506 | 84 | 227 | 0.0 | 2.0 | 0.00 | 0.37 | 0.22 | 64 | 1013.6 |
| 20260831180008 | 83 | 200 | 1.0 | 10.0 | 0.00 | 0.37 | 0.22 | 65 | 1013.6 |
| 20260831175505 | 83 | 186 | 1.0 | 10.0 | 0.00 | 0.37 | 0.22 | 65 | 1013.8 |
| 20260831174505 | 82 | 267 | 0.0 | 5.0 | 0.00 | 0.37 | 0.22 | 66 | 1013.9 |
| 20260831174006 | 82 | 237 | 0.0 | 4.0 | 0.00 | 0.37 | 0.22 | 68 | 1013.8 |
| 20260831173504 | 81 | 228 | 0.0 | 3.0 | 0.00 | 0.37 | 0.22 | 69 | 1013.9 |
| 20260831173004 | 81 | 257 | 0.0 | 4.0 | 0.00 | 0.37 | 0.22 | 70 | 1013.9 |
| 20260831172007 | 80 | 258 | 0.0 | 7.0 | 0.00 | 0.37 | 0.22 | 74 | 1014.0 |
| 20260831171505 | 80 | 258 | 0.0 | 7.0 | 0.00 | 0.37 | 0.22 | 72 | 1014.2 |
| 20260831171007 | 79 | 271 | 0.0 | 5.0 | 0.00 | 0.37 | 0.22 | 75 | 1014.1 |
| 20260831170506 | 78 | 259 | 0.0 | 5.0 | 0.00 | 0.37 | 0.22 | 75 | 1014.2 |
| 20260831165504 | 78 | 157 | 0.0 | 3.0 | 0.00 | 0.37 | 0.22 | 76 | 1014.3 |
| 20260831165007 | 77 | 215 | 0.0 | 3.0 | 0.00 | 0.37 | 0.22 | 76 | 1014.4 |
| 20260831164503 | 77 | 313 | 0.0 | 1.0 | 0.00 | 0.37 | 0.22 | 78 | 1014.5 |
| 20260831164005 | 76 | 288 | 0.0 | 2.0 | 0.00 | 0.37 | 0.22 | 78 | 1014.5 |
| 20260831163505 | 76 | 288 | 0.0 | 2.0 | 0.00 | 0.37 | 0.22 | 80 | 1014.6 |
| 20260831163006 | 75 | 355 | 0.0 | 0.0 | 0.00 | 0.37 | 0.22 | 83 | 1014.6 |
| 20260831162503 | 74 | 337 | 0.0 | 1.0 | 0.00 | 0.37 | 0.22 | 83 | 1014.7 |
| 20260831161503 | 73 | 148 | 0.0 | 4.0 | 0.00 | 0.37 | 0.22 | 85 | 1014.6 |
| 20260831160503 | 72 | 302 | 0.0 | 2.0 | 0.00 | 0.37 | 0.22 | 86 | 1014.7 |
| 20260831155503 | 71 | 302 | 0.0 | 1.0 | 0.00 | 0.37 | 0.22 | 89 | 1014.8 |
| 20260831155006 | 71 | 302 | 0.0 | 1.0 | 0.00 | 0.37 | 0.22 | 89 | 1014.8 |
| 20260831154504 | 71 | 302 | 0.0 | 1.0 | 0.00 | 0.37 | 0.22 | 89 | 1014.9 |
| 20260831154004 | 70 | 302 | 0.0 | 1.0 | 0.00 | 0.37 | 0.22 | 90 | 1015.1 |
| 20260831153004 | 70 | 302 | 0.0 | 1.0 | 0.00 | 0.37 | 0.22 | 90 | 1015.0 |
| 20260831152504 | 70 | 302 | 0.0 | 1.0 | 0.00 | 0.37 | 0.22 | 90 | 1015.1 |
| 20260831152004 | 70 | 302 | 0.0 | 1.0 | 0.00 | 0.37 | 0.22 | 90 | 1015.0 |
| 20260831151503 | 70 | 302 | 0.0 | 0.0 | 0.00 | 0.37 | 0.22 | 90 | 1015.2 |
| 20260831151004 | 70 | 302 | 0.0 | 0.0 | 0.00 | 0.37 | 0.22 | 90 | 1015.3 |
| 20260831150004 | 70 | 302 | 0.0 | 0.0 | 0.00 | 0.37 | 0.22 | 90 | 1015.5 |
| 20260831145503 | 70 | 302 | 0.0 | 1.0 | 0.00 | 0.37 | 0.22 | 91 | 1015.4 |
| 20260831145004 | 70 | 302 | 0.0 | 1.0 | 0.01 | 0.37 | 0.22 | 91 | 1015.4 |
| 20260831144504 | 70 | 302 | 0.0 | 1.0 | 0.01 | 0.37 | 0.22 | 91 | 1015.2 |
| 20260831144004 | 70 | 302 | 0.0 | 1.0 | 0.02 | 0.37 | 0.22 | 91 | 1015.1 |
| 20260831143504 | 70 | 302 | 0.0 | 0.0 | 0.05 | 0.37 | 0.22 | 91 | 1014.8 |
| 20260831143004 | 70 | 302 | 0.0 | 0.0 | 0.06 | 0.37 | 0.22 | 91 | 1015.0 |
| 20260831142504 | 69 | 302 | 0.0 | 0.0 | 0.06 | 0.37 | 0.22 | 91 | 1015.0 |
| 20260831142004 | 69 | 302 | 0.0 | 0.0 | 0.07 | 0.37 | 0.22 | 91 | 1015.2 |
| 20260831141504 | 69 | 302 | 0.0 | 0.0 | 0.07 | 0.37 | 0.22 | 91 | 1015.3 |
| 20260831141004 | 69 | 302 | 0.0 | 0.0 | 0.07 | 0.37 | 0.22 | 91 | 1015.3 |
| 20260831140504 | 69 | 302 | 0.0 | 0.0 | 0.07 | 0.37 | 0.22 | 91 | 1015.2 |
| 20260831135503 | 69 | 302 | 0.0 | 1.0 | 0.09 | 0.40 | 0.22 | 91 | 1015.3 |
| 20260831135006 | 69 | 302 | 0.0 | 0.0 | 0.11 | 0.39 | 0.21 | 91 | 1015.3 |
| 20260831134503 | 69 | 302 | 0.0 | 0.0 | 0.18 | 0.39 | 0.21 | 91 | 1015.3 |
| 20260831133502 | 69 | 302 | 0.0 | 0.0 | 0.17 | 0.35 | 0.17 | 91 | 1015.5 |
| 20260831133004 | 69 | 302 | 0.0 | 0.0 | 0.16 | 0.34 | 0.16 | 90 | 1015.4 |
| 20260831132504 | 69 | 302 | 0.0 | 0.0 | 0.16 | 0.34 | 0.16 | 90 | 1015.4 |
| 20260831132007 | 69 | 302 | 0.0 | 0.0 | 0.15 | 0.33 | 0.15 | 90 | 1015.4 |
| 20260831131503 | 69 | 302 | 0.0 | 0.0 | 0.15 | 0.33 | 0.15 | 89 | 1015.4 |
| 20260831131004 | 69 | 302 | 0.0 | 0.0 | 0.15 | 0.33 | 0.15 | 88 | 1015.4 |
| 20260831130506 | 69 | 302 | 0.0 | 0.0 | 0.15 | 0.33 | 0.15 | 87 | 1015.3 |
| 20260831130007 | 70 | 302 | 0.0 | 0.0 | 0.14 | 0.36 | 0.14 | 87 | 1015.5 |
| 20260831125505 | 71 | 302 | 0.0 | 1.0 | 0.13 | 0.35 | 0.13 | 85 | 1015.5 |
| 20260831123504 | 73 | 304 | 0.0 | 0.0 | 0.00 | 0.22 | 0.00 | 77 | 1015.4 |
| 20260831123005 | 73 | 304 | 0.0 | 0.0 | 0.00 | 0.22 | 0.00 | 75 | 1015.3 |
| 20260831122504 | 73 | 304 | 0.0 | 0.0 | 0.00 | 0.22 | 0.00 | 75 | 1015.4 |
| 20260831122007 | 74 | 301 | 0.0 | 0.0 | 0.00 | 0.22 | 0.00 | 74 | 1015.1 |
| 20260831121506 | 74 | 301 | 0.0 | 3.0 | 0.00 | 0.22 | 0.00 | 73 | 1015.0 |
| 20260831121004 | 74 | 301 | 0.0 | 3.0 | 0.00 | 0.22 | 0.00 | 73 | 1014.7 |
| 20260831120503 | 74 | 265 | 0.0 | 1.0 | 0.00 | 0.22 | 0.00 | 73 | 1014.7 |
| 20260831120008 | 74 | 244 | 0.0 | 1.0 | 0.00 | 0.23 | 0.00 | 71 | 1014.5 |
| 20260831115503 | 74 | 263 | 0.0 | 0.0 | 0.00 | 0.23 | 0.00 | 72 | 1014.1 |
| 20260831115004 | 74 | 281 | 0.0 | 0.0 | 0.00 | 0.23 | 0.00 | 72 | 1014.1 |
| 20260831114503 | 74 | 281 | 0.0 | 0.0 | 0.00 | 0.23 | 0.00 | 72 | 1014.0 |
| 20260831114004 | 74 | 281 | 0.0 | 0.0 | 0.00 | 0.23 | 0.00 | 72 | 1014.1 |
| 20260831113503 | 74 | 281 | 0.0 | 0.0 | 0.00 | 0.23 | 0.00 | 72 | 1014.0 |
| 20260831112503 | 74 | 281 | 0.0 | 0.0 | 0.00 | 0.23 | 0.00 | 71 | 1014.0 |
| 20260831112004 | 74 | 281 | 0.0 | 1.0 | 0.00 | 0.23 | 0.00 | 72 | 1014.0 |
| 20260831111504 | 74 | 281 | 0.0 | 3.0 | 0.00 | 0.23 | 0.00 | 71 | 1013.9 |
| 20260831110503 | 74 | 257 | 0.0 | 2.0 | 0.00 | 0.23 | 0.00 | 72 | 1013.8 |
| 20260831105502 | 74 | 257 | 0.0 | 0.0 | 0.00 | 0.23 | 0.00 | 71 | 1013.8 |
| 20260831105004 | 74 | 257 | 0.0 | 0.0 | 0.00 | 0.23 | 0.00 | 71 | 1013.8 |
| 20260831104503 | 74 | 257 | 0.0 | 4.0 | 0.00 | 0.23 | 0.00 | 71 | 1013.7 |
| 20260831104005 | 74 | 257 | 0.0 | 4.0 | 0.00 | 0.23 | 0.00 | 71 | 1013.8 |
| 20260831103501 | 74 | 264 | 0.0 | 0.0 | 0.00 | 0.23 | 0.00 | 71 | 1013.7 |
| 20260831103005 | 74 | 264 | 0.0 | 1.0 | 0.00 | 0.23 | 0.00 | 71 | 1013.7 |
| 20260831102503 | 74 | 264 | 0.0 | 1.0 | 0.00 | 0.23 | 0.00 | 71 | 1013.8 |
| 20260831101503 | 74 | 275 | 0.0 | 1.0 | 0.00 | 0.23 | 0.00 | 72 | 1013.8 |
| 20260831101004 | 74 | 266 | 0.0 | 1.0 | 0.00 | 0.23 | 0.00 | 72 | 1013.7 |
| 20260831100504 | 74 | 265 | 0.0 | 1.0 | 0.00 | 0.23 | 0.00 | 73 | 1013.7 |
| 20260831100004 | 74 | 248 | 0.0 | 0.0 | 0.00 | 0.23 | 0.00 | 73 | 1013.7 |
| 20260831095503 | 74 | 248 | 0.0 | 1.0 | 0.00 | 0.23 | 0.00 | 73 | 1013.6 |
| 20260831095003 | 74 | 248 | 0.0 | 1.0 | 0.00 | 0.23 | 0.00 | 74 | 1013.6 |
| 20260831094504 | 74 | 250 | 0.0 | 1.0 | 0.00 | 0.23 | 0.00 | 74 | 1013.6 |
| 20260831094004 | 74 | 250 | 0.0 | 0.0 | 0.00 | 0.23 | 0.00 | 74 | 1013.6 |
| 20260831093503 | 74 | 250 | 0.0 | 0.0 | 0.00 | 0.23 | 0.00 | 74 | 1013.6 |
| 20260831093004 | 74 | 249 | 0.0 | 3.0 | 0.00 | 0.23 | 0.00 | 74 | 1013.8 |
| 20260831092504 | 74 | 249 | 0.0 | 3.0 | 0.00 | 0.23 | 0.00 | 74 | 1013.8 |
| 20260831092004 | 74 | 64 | 0.0 | 0.0 | 0.00 | 0.23 | 0.00 | 74 | 1013.7 |
| 20260831091503 | 74 | 64 | 0.0 | 0.0 | 0.00 | 0.23 | 0.00 | 74 | 1013.7 |
| 20260831090502 | 74 | 64 | 0.0 | 1.0 | 0.00 | 0.23 | 0.00 | 75 | 1013.9 |
| 20260831090004 | 73 | 64 | 0.0 | 1.0 | 0.00 | 0.23 | 0.00 | 76 | 1014.0 |
| 20260831085503 | 73 | 64 | 0.0 | 1.0 | 0.00 | 0.23 | 0.00 | 77 | 1013.9 |
| 20260831085003 | 73 | 65 | 0.0 | 1.0 | 0.00 | 0.23 | 0.00 | 78 | 1013.9 |
| 20260831084004 | 73 | 71 | 0.0 | 0.0 | 0.00 | 0.23 | 0.00 | 79 | 1013.9 |
| 20260831083503 | 73 | 71 | 0.0 | 0.0 | 0.00 | 0.23 | 0.00 | 79 | 1014.0 |
| 20260831083004 | 73 | 71 | 0.0 | 0.0 | 0.00 | 0.23 | 0.00 | 79 | 1013.9 |
| 20260831082503 | 73 | 71 | 0.0 | 0.0 | 0.00 | 0.23 | 0.00 | 80 | 1014.0 |
| 20260831082004 | 73 | 71 | 0.0 | 0.0 | 0.00 | 0.23 | 0.00 | 80 | 1013.9 |
| 20260831081504 | 73 | 71 | 0.0 | 0.0 | 0.00 | 0.23 | 0.00 | 80 | 1013.9 |
| 20260831081004 | 73 | 71 | 0.0 | 0.0 | 0.00 | 0.23 | 0.00 | 81 | 1013.9 |
| 20260831080502 | 73 | 71 | 0.0 | 0.0 | 0.00 | 0.23 | 0.00 | 81 | 1013.8 |
| 20260831080004 | 73 | 71 | 0.0 | 0.0 | 0.00 | 0.23 | 0.00 | 81 | 1013.9 |
| 20260831075003 | 73 | 71 | 0.0 | 0.0 | 0.00 | 0.23 | 0.00 | 82 | 1013.9 |
| 20260831074500 | 73 | 71 | 0.0 | 0.0 | 0.00 | 0.23 | 0.00 | 82 | 1014.0 |
| 20260831074004 | 73 | 71 | 0.0 | 0.0 | 0.00 | 0.23 | 0.00 | 82 | 1013.9 |
| 20260831073459 | 73 | 71 | 0.0 | 0.0 | 0.00 | 0.23 | 0.00 | 82 | 1014.0 |
| 20260831073003 | 73 | 71 | 0.0 | 0.0 | 0.00 | 0.23 | 0.00 | 82 | 1014.1 |
| 20260831072500 | 73 | 71 | 0.0 | 0.0 | 0.00 | 0.23 | 0.00 | 82 | 1014.1 |
| 20260831072004 | 73 | 71 | 0.0 | 0.0 | 0.00 | 0.23 | 0.00 | 82 | 1014.1 |
| 20260831071501 | 73 | 71 | 0.0 | 0.0 | 0.00 | 0.23 | 0.00 | 82 | 1014.0 |
| 20260831071003 | 73 | 71 | 0.0 | 0.0 | 0.00 | 0.23 | 0.00 | 82 | 1014.0 |
| 20260831070500 | 73 | 71 | 0.0 | 0.0 | 0.00 | 0.23 | 0.00 | 83 | 1014.1 |
| 20260831065503 | 73 | 71 | 0.0 | 0.0 | 0.00 | 0.23 | 0.00 | 84 | 1014.1 |
| 20260831065004 | 73 | 71 | 0.0 | 0.0 | 0.00 | 0.23 | 0.00 | 85 | 1014.1 |
| 20260831064504 | 72 | 71 | 0.0 | 0.0 | 0.00 | 0.23 | 0.00 | 85 | 1014.2 |
| 20260831063007 | 72 | 71 | 0.0 | 1.0 | 0.00 | 0.23 | 0.00 | 87 | 1014.3 |
| 20260831062503 | 72 | 71 | 0.0 | 1.0 | 0.00 | 0.23 | 0.00 | 87 | 1014.2 |
| 20260831062004 | 72 | 71 | 0.0 | 0.0 | 0.00 | 0.23 | 0.00 | 88 | 1014.2 |
| 20260831060501 | 72 | 71 | 0.0 | 0.0 | 0.00 | 0.23 | 0.00 | 87 | 1014.2 |
| 20260831060007 | 72 | 71 | 0.0 | 0.0 | 0.00 | 0.23 | 0.00 | 88 | 1014.3 |
| 20260831055506 | 72 | 71 | 0.0 | 1.0 | 0.00 | 0.23 | 0.00 | 87 | 1014.1 |
| 20260831055007 | 73 | 71 | 0.0 | 1.0 | 0.00 | 0.23 | 0.00 | 87 | 1014.2 |
| 20260831054504 | 73 | 71 | 0.0 | 1.0 | 0.00 | 0.23 | 0.00 | 87 | 1014.1 |
| 20260831054008 | 73 | 71 | 0.0 | 1.0 | 0.00 | 0.23 | 0.00 | 87 | 1014.1 |
| 20260831053506 | 73 | 71 | 0.0 | 0.0 | 0.00 | 0.23 | 0.00 | 86 | 1014.1 |
| 20260831053005 | 73 | 71 | 0.0 | 1.0 | 0.00 | 0.23 | 0.00 | 86 | 1014.0 |
| 20260831052503 | 73 | 71 | 0.0 | 1.0 | 0.00 | 0.23 | 0.00 | 86 | 1013.9 |
| 20260831052007 | 74 | 71 | 0.0 | 2.0 | 0.00 | 0.23 | 0.00 | 85 | 1014.1 |
| 20260831051506 | 74 | 74 | 0.0 | 2.0 | 0.00 | 0.23 | 0.00 | 84 | 1014.0 |
| 20260831051008 | 75 | 217 | 0.0 | 1.0 | 0.00 | 0.23 | 0.00 | 83 | 1013.9 |
| 20260831050504 | 75 | 246 | 0.0 | 2.0 | 0.00 | 0.23 | 0.00 | 81 | 1013.6 |
| 20260831050007 | 75 | 176 | 0.0 | 2.0 | 0.00 | 0.23 | 0.23 | 82 | 1013.4 |
| 20260831045504 | 74 | 256 | 0.0 | 4.0 | 0.00 | 0.23 | 0.23 | 83 | 1013.4 |
| 20260831045004 | 74 | 255 | 0.0 | 4.0 | 0.00 | 0.23 | 0.23 | 84 | 1013.4 |
| 20260831044503 | 74 | 281 | 0.0 | 1.0 | 0.00 | 0.23 | 0.23 | 85 | 1013.6 |
| 20260831044007 | 74 | 281 | 0.0 | 1.0 | 0.00 | 0.23 | 0.23 | 85 | 1013.6 |
| 20260831043504 | 74 | 281 | 0.0 | 1.0 | 0.00 | 0.23 | 0.23 | 86 | 1013.8 |
| 20260831043004 | 74 | 281 | 0.0 | 0.0 | 0.00 | 0.23 | 0.23 | 88 | 1013.8 |
| 20260831042503 | 73 | 281 | 0.0 | 2.0 | 0.00 | 0.23 | 0.23 | 89 | 1013.9 |
| 20260831041503 | 73 | 279 | 0.0 | 1.0 | 0.01 | 0.23 | 0.23 | 91 | 1014.0 |
| 20260831041003 | 73 | 279 | 0.0 | 1.0 | 0.01 | 0.23 | 0.23 | 91 | 1014.2 |
| 20260831040502 | 73 | 279 | 0.0 | 1.0 | 0.01 | 0.23 | 0.23 | 92 | 1014.2 |
| 20260831040007 | 73 | 279 | 0.0 | 1.0 | 0.02 | 0.23 | 0.23 | 92 | 1014.3 |
| 20260831035504 | 73 | 280 | 0.0 | 0.0 | 0.02 | 0.23 | 0.23 | 92 | 1014.6 |
| 20260831035004 | 73 | 280 | 0.0 | 0.0 | 0.02 | 0.23 | 0.23 | 92 | 1014.6 |
| 20260831034504 | 73 | 280 | 0.0 | 0.0 | 0.02 | 0.23 | 0.23 | 93 | 1014.6 |
| 20260831034004 | 73 | 280 | 0.0 | 0.0 | 0.02 | 0.23 | 0.23 | 93 | 1014.9 |
| 20260831033004 | 73 | 280 | 0.0 | 0.0 | 0.02 | 0.23 | 0.23 | 93 | 1015.1 |
| 20260831032504 | 73 | 280 | 0.0 | 0.0 | 0.02 | 0.23 | 0.23 | 93 | 1015.2 |
| 20260831031504 | 73 | 280 | 0.0 | 0.0 | 0.01 | 0.22 | 0.22 | 93 | 1015.3 |
| 20260831031004 | 73 | 280 | 0.0 | 0.0 | 0.01 | 0.22 | 0.22 | 93 | 1015.6 |
| 20260831030504 | 73 | 280 | 0.0 | 0.0 | 0.02 | 0.22 | 0.22 | 93 | 1015.6 |
| 20260831025504 | 73 | 280 | 0.0 | 0.0 | 0.01 | 0.21 | 0.21 | 92 | 1015.9 |
| 20260831025005 | 73 | 280 | 0.0 | 0.0 | 0.01 | 0.21 | 0.21 | 92 | 1015.7 |
| 20260831024504 | 73 | 280 | 0.0 | 0.0 | 0.01 | 0.21 | 0.21 | 92 | 1015.7 |
| 20260831024006 | 73 | 280 | 0.0 | 0.0 | 0.01 | 0.21 | 0.21 | 92 | 1015.8 |
| 20260831023504 | 73 | 280 | 0.0 | 0.0 | 0.01 | 0.21 | 0.21 | 92 | 1015.6 |
| 20260831023005 | 73 | 280 | 0.0 | 0.0 | 0.01 | 0.21 | 0.21 | 92 | 1015.6 |
| 20260831022515 | 73 | 280 | 0.0 | 0.0 | 0.01 | 0.21 | 0.21 | 92 | 1015.7 |
| 20260831022230 | 73 | 280 | 0.0 | 0.0 | 0.01 | 0.21 | 0.21 | 92 | 1015.7 |
| 20260831021504 | 73 | 280 | 0.0 | 0.0 | 0.01 | 0.21 | 0.21 | 92 | 1015.6 |
| 20260831021004 | 73 | 280 | 0.0 | 1.0 | 0.01 | 0.21 | 0.21 | 92 | 1015.5 |
| 20260831020504 | 73 | 280 | 0.0 | 1.0 | 0.00 | 0.20 | 0.20 | 92 | 1015.6 |
| 20260831020004 | 73 | 280 | 0.0 | 0.0 | 0.00 | 0.20 | 0.20 | 92 | 1015.4 |
| 20260831015504 | 73 | 280 | 0.0 | 0.0 | 0.00 | 0.20 | 0.20 | 92 | 1015.6 |
| 20260831015004 | 73 | 280 | 0.0 | 0.0 | 0.00 | 0.20 | 0.20 | 92 | 1015.4 |
| 20260831014004 | 73 | 280 | 0.0 | 1.0 | 0.00 | 0.20 | 0.20 | 92 | 1015.3 |
| 20260831013504 | 73 | 280 | 0.0 | 0.0 | 0.00 | 0.20 | 0.20 | 92 | 1015.2 |
| 20260831013004 | 73 | 280 | 0.0 | 0.0 | 0.00 | 0.20 | 0.20 | 92 | 1015.3 |
| 20260831012504 | 73 | 280 | 0.0 | 1.0 | 0.00 | 0.20 | 0.20 | 92 | 1015.3 |
| 20260831012004 | 73 | 280 | 0.0 | 1.0 | 0.00 | 0.20 | 0.20 | 92 | 1015.3 |
| 20260831011503 | 73 | 280 | 0.0 | 0.0 | 0.00 | 0.20 | 0.20 | 92 | 1015.1 |
| 20260831011004 | 73 | 280 | 0.0 | 1.0 | 0.00 | 0.20 | 0.20 | 92 | 1015.2 |
| 20260831010503 | 73 | 280 | 0.0 | 1.0 | 0.00 | 0.20 | 0.20 | 92 | 1015.2 |
| 20260831010007 | 73 | 280 | 0.0 | 0.0 | 0.00 | 0.20 | 0.20 | 92 | 1015.0 |
| 20260831005504 | 73 | 280 | 0.0 | 0.0 | 0.00 | 0.20 | 0.20 | 92 | 1014.9 |